Volver al catálogo

UTE-GALAPAGOS

ActivoRadioaficionadoSSO
NORAD 67279·PAYLOAD·🇪🇨 Ecuador
Este nombre de satélite aún no ha sido confirmado por fuentes oficiales.

Lanzado Dec 28, 2025 desde Vostochny Cosmodrome

Loading…

Próximos Pases (próximas 24 horas)

TLE

ActualizadoSource: Space-Track

Época: Sep 14, 2026, 11:24 UTC

1 67279U 25313AH  26257.47556711  .00005468  00000-0  22907-3 0  9999
2 67279  97.3850 330.7088 0014915  54.6027 305.6601 15.23844787 39549

Sigue UTE-GALAPAGOS en tiempo real con AllMySat

Download on the App Store